Theta_e
296 290 288 290 291 291 289 288 286 287 293 292 291 290 292 294 293 292 293 295 294 295 299 301 306 311 316 318 322 326 329 329 329 326 328 330 330 331 332 332 331 329 329 328
291 287 293 294 294 292 290 287 285 288 292 290 289 289 292 293 293 294 295 295 295 294 297 298 300 300 302 303 311 318 327 329 329 328 328 329 330 331 332 333 331 330 328 328
288 291 295 294 291 291 288 287 285 286 288 288 285 285 288 293 294 294 295 295 296 296 296 297 297 298 299 298 298 301 307 324 329 328 326 325 330 330 329 330 330 329 328 326
290 293 293 291 290 290 286 290 290 288 285 280 283 278 283 287 290 292 294 294 295 295 295 296 297 298 299 301 302 302 302 302 313 326 326 325 324 324 327 328 329 329 327 326
288 289 290 289 291 292 288 291 289 288 286 282 281 279 284 285 286 291 292 293 293 295 296 298 299 300 302 303 304 306 305 301 301 320 325 324 320 322 322 326 327 327 326 325
290 292 291 291 291 292 293 290 289 286 283 278 280 280 279 284 289 287 290 292 295 295 296 297 299 301 302 303 305 307 304 299 301 305 318 322 320 322 321 322 323 325 325 324
287 288 290 292 289 291 290 286 279 277 276 276 279 279 283 287 288 292 292 294 294 294 295 297 298 299 300 301 304 309 307 306 302 307 311 317 320 322 321 320 322 322 322 321
282 281 287 291 289 286 287 286 280 274 274 276 280 278 284 289 289 291 294 295 295 296 297 297 298 298 299 300 302 307 307 307 308 309 310 311 313 317 319 319 319 319 320 320
283 283 290 290 291 290 286 284 289 281 273 276 279 282 288 290 289 291 293 294 293 295 296 297 297 298 298 298 300 303 306 307 308 307 307 308 310 312 314 314 314 313 313 312
287 282 288 288 290 289 288 290 283 283 273 272 277 278 281 287 288 289 291 292 293 294 296 296 296 297 297 298 299 300 301 302 303 303 303 303 304 305 306 306 305 304 305 305
288 286 284 287 286 285 285 284 285 285 282 275 274 278 285 287 289 289 290 292 293 294 294 295 295 296 296 296 297 297 297 297 297 299 300 300 300 300 299 299 299 299 298 298
289 286 281 283 287 288 287 286 286 281 279 280 279 280 288 288 291 291 291 293 293 294 294 294 294 294 294 294 294 293 294 294 294 294 294 293 294 294 293 292 293 293 293 293
290 284 278 281 285 287 285 286 286 285 282 278 276 279 289 289 290 291 292 293 294 294 294 294 293 293 292 292 292 292 292 292 292 292 291 291 290 290 290 290 291 291 291 290
295 286 283 279 282 285 283 285 286 286 279 279 280 282 287 289 291 292 293 294 294 294 294 293 293 292 292 292 291 290 291 291 291 291 290 289 289 289 289 289 289 288 288 288
290 281 283 285 286 286 284 285 286 285 287 282 286 284 287 289 290 293 293 294 294 293 294 293 292 292 291 290 290 290 290 290 290 290 289 288 288 288 287 287 287 286 285 285
289 275 281 279 285 284 282 285 286 287 287 286 284 284 289 291 291 293 294 294 294 294 294 294 293 291 290 290 289 290 289 289 289 288 287 287 286 285 285 285 285 285 284 284
286 281 276 272 282 282 279 283 284 285 286 287 283 289 289 288 290 291 293 294 294 294 293 293 293 292 291 290 290 289 288 287 286 284 284 284 284 283 283 284 283 283 283 283
280 280 277 274 275 272 283 286 289 287 288 289 288 288 289 290 292 293 294 295 294 294 294 294 293 291 290 289 289 288 286 284 283 283 282 283 282 282 282 282 282 282 282 281
288 284 280 276 268 279 283 286 284 285 285 290 290 291 289 291 291 290 293 294 295 295 295 294 292 290 288 288 287 285 283 283 283 282 282 281 280 279 280 279 280 281 279 279
288 288 283 276 272 272 281 286 287 289 282 284 290 291 289 289 284 289 291 293 293 292 292 289 289 287 286 284 284 283 281 281 280 280 281 280 280 278 277 279 279 279 277 279
284 284 282 281 275 277 285 285 289 280 282 283 287 289 288 286 288 288 288 286 287 288 286 286 287 285 284 283 283 281 280 279 278 278 278 277 277 277 278 277 277 275 274 275
282 281 282 282 275 275 284 285 284 286 284 284 286 287 286 286 286 285 284 283 284 283 283 283 282 282 281 281 281 279 277 277 276 275 275 275 275 277 276 274 273 271 269 270
281 283 281 284 282 285 283 285 286 287 286 285 285 285 287 285 284 283 282 281 281 281 281 280 280 278 277 278 278 276 275 275 273 272 271 273 274 274 273 269 270 273 269 267
282 285 283 283 283 284 285 285 286 286 285 285 285 285 286 285 284 282 281 281 280 279 278 277 277 276 274 274 276 276 274 273 272 272 272 272 270 268 269 271 271 266 266 266
282 284 281 280 282 283 284 285 286 284 283 283 284 285 285 284 282 282 280 279 279 279 277 277 277 276 274 274 273 272 271 271 270 270 271 270 269 266 268 270 269 271 270 270
279 281 281 280 285 285 285 285 286 284 283 283 283 282 282 283 282 280 278 279 278 277 276 275 274 273 272 271 269 266 266 266 267 268 267 267 267 266 267 267 266 273 275 277
Wind_Speed
6 6 18 14 3 4 2 6 6 2 5 6 9 6 10 8 5 8 9 8 8 10 9 9 9 9 7 6 8 11 11 12 10 6 7 6 7 6 6 6 8 7 6 7
6 14 7 8 7 9 4 7 5 2 2 2 4 10 9 7 8 9 10 9 9 5 7 6 7 6 6 6 5 5 9 13 11 8 7 5 5 3 6 6 7 8 8 8
8 6 8 10 7 12 6 5 5 6 3 1 2 7 6 9 7 7 9 7 7 10 9 8 7 6 5 3 1 2 5 8 11 11 6 4 4 3 3 4 6 7 8 7
6 4 17 6 9 7 6 4 8 11 6 4 3 6 7 7 10 8 11 9 8 7 6 6 6 5 5 2 1 0 1 3 5 9 10 11 8 7 5 4 4 6 7 7
5 7 8 5 12 7 4 4 7 5 5 5 1 2 9 1 5 9 10 9 7 7 8 8 7 6 3 3 1 1 3 3 3 5 8 7 4 4 3 3 6 5 6 7
3 2 2 7 2 5 7 6 9 6 4 0 5 7 7 3 6 3 4 6 9 8 9 8 6 6 4 3 3 1 3 3 2 4 7 9 9 7 4 3 4 4 4 5
3 1 1 3 8 6 5 6 3 3 2 7 2 4 10 6 4 6 7 8 7 7 7 7 7 6 4 4 2 4 6 4 2 5 5 6 7 6 8 4 3 5 3 3
7 3 6 3 6 9 6 6 7 8 5 5 2 7 8 4 1 2 7 9 8 7 7 7 6 5 5 5 4 6 5 6 7 7 7 6 5 4 4 4 4 3 2 3
6 1 2 2 1 8 6 4 6 8 3 4 5 6 11 3 2 6 8 7 8 8 7 7 8 5 5 5 5 6 5 6 7 6 6 6 6 7 8 8 7 4 4 4
5 6 2 2 1 1 5 6 4 2 5 3 4 5 7 6 9 7 7 8 8 7 8 7 6 7 5 5 5 7 6 7 6 7 6 6 7 9 10 9 8 7 6 7
4 5 3 1 5 8 4 3 2 5 6 7 3 8 8 5 7 13 12 10 10 9 8 7 6 6 7 6 7 6 6 8 7 7 7 9 8 9 9 8 7 7 7 6
2 7 4 5 1 3 3 6 6 6 5 2 4 7 2 3 6 8 9 8 8 8 8 7 7 7 6 6 6 6 6 7 7 7 8 8 8 7 9 8 7 6 7 7
8 0 5 4 3 2 5 4 3 6 4 6 7 8 2 4 3 5 9 8 7 7 7 7 6 6 6 6 6 6 5 6 7 8 9 8 7 7 8 7 7 7 7 7
8 2 8 10 7 8 6 7 7 6 3 4 9 5 5 6 6 6 7 8 9 9 9 7 7 7 6 6 6 6 6 6 7 8 9 9 7 6 6 7 7 7 6 6
7 9 4 5 3 6 6 11 14 11 22 10 21 11 7 8 10 9 8 8 9 9 10 9 9 7 7 7 6 6 6 6 6 9 10 7 6 6 6 7 6 6 7 6
1 1 3 4 5 2 2 8 15 22 16 14 1 10 7 7 5 7 12 13 12 12 11 10 10 10 9 9 8 7 7 6 6 9 9 6 6 6 6 6 6 6 6 6
8 7 4 5 2 4 7 14 12 10 7 18 13 16 7 4 6 9 10 12 14 12 14 15 15 13 11 10 10 9 8 7 8 9 7 6 6 6 6 5 6 5 5 4
7 7 3 3 3 4 8 1 13 15 8 14 10 4 6 9 9 9 9 15 13 13 15 14 13 12 10 8 9 9 8 8 8 7 7 6 6 5 5 5 5 4 4 4
3 6 4 7 4 6 6 6 8 10 11 9 18 11 7 5 2 6 7 7 11 11 10 11 12 12 11 11 10 11 9 8 7 6 6 5 4 4 4 4 4 3 2 1
5 4 5 3 7 11 5 4 1 6 11 5 11 11 7 7 4 6 2 1 5 8 11 15 14 13 13 9 11 11 9 7 7 5 5 5 4 4 3 2 1 1 1 1
5 2 7 3 5 9 7 4 2 8 7 2 2 3 6 6 3 1 4 8 6 7 13 13 13 12 12 10 10 10 8 7 5 4 4 4 4 3 3 2 2 2 2 3
6 8 6 3 3 11 7 2 10 5 1 4 3 1 4 5 5 5 6 7 8 12 10 10 12 10 7 8 10 9 7 5 5 4 4 4 3 2 3 4 3 3 4 4
4 6 7 9 7 3 4 1 3 3 5 3 3 2 5 6 5 6 6 7 6 9 9 8 12 11 5 5 6 10 6 5 5 3 4 3 4 5 4 2 2 2 3 2
2 2 2 3 2 4 6 3 4 2 3 3 3 5 7 6 7 6 6 7 7 7 8 7 11 11 7 5 6 7 8 6 5 6 4 4 4 3 3 3 2 1 1 1
4 8 6 3 2 2 4 4 6 5 3 3 3 5 7 7 7 7 6 7 7 8 7 8 9 8 7 6 6 5 5 5 6 5 4 4 2 2 1 1 1 1 2 1
5 7 6 6 5 3 3 3 6 8 7 8 6 3 2 6 8 7 7 8 9 10 8 8 6 8 8 8 7 5 4 3 5 5 3 2 2 1 1 1 2 7 7 10
Wind_Direction
200 181 206 215 159 267 182 172 175 179 200 142 201 199 226 226 208 211 222 224 222 208 219 207 202 176 177 179 173 170 165 177 164 159 168 192 201 198 198 193 188 186 191 197
161 212 186 185 205 228 225 187 189 345 22 139 182 247 239 214 211 202 205 220 226 204 190 178 168 155 152 152 174 173 177 174 179 177 180 185 185 192 198 190 194 193 193 198
159 197 202 187 181 225 203 189 195 165 166 321 36 300 240 238 217 197 220 210 209 204 191 164 151 145 125 121 100 215 191 178 188 177 162 142 153 177 182 194 194 199 193 195
171 191 190 181 207 159 185 211 157 142 126 196 138 270 278 237 222 205 217 205 193 148 135 143 140 111 123 126 72 347 201 156 182 176 177 180 187 188 200 177 173 190 195 199
197 162 151 162 201 151 190 139 138 130 95 87 225 69 268 9 207 215 217 197 189 167 145 126 127 127 107 103 166 265 277 255 196 187 172 179 165 181 189 161 190 181 188 193
138 241 140 167 76 135 135 84 41 53 78 328 226 153 282 234 226 201 212 172 154 133 122 119 122 109 90 40 42 340 193 257 261 177 182 176 179 191 177 192 195 186 178 187
104 31 241 176 85 6 140 89 47 25 9 221 342 162 246 253 236 183 180 154 151 132 128 127 119 102 86 58 31 64 94 52 88 93 103 172 194 202 170 191 169 164 151 182
153 200 187 189 156 170 172 163 152 172 189 231 339 221 248 246 161 167 140 146 136 134 130 121 119 118 99 69 57 68 86 75 66 88 78 80 103 126 96 91 107 71 91 94
139 155 339 44 104 150 199 191 152 106 24 73 219 287 308 177 113 84 126 140 147 143 137 126 116 115 103 79 72 95 94 86 73 72 78 68 70 83 90 78 73 76 71 69
178 108 341 309 245 45 156 161 87 18 128 241 279 272 238 216 210 187 178 175 175 153 140 139 136 129 110 108 98 83 85 85 73 77 71 72 76 79 79 78 79 72 64 67
123 100 280 202 210 172 149 174 152 119 143 160 181 256 222 258 189 191 200 189 169 165 156 150 142 130 123 109 94 88 78 82 71 69 68 74 67 74 80 81 75 77 74 69
142 115 142 202 268 297 315 179 153 155 205 175 144 271 249 268 294 185 177 170 164 158 154 151 148 137 123 114 103 101 93 92 87 75 74 70 70 70 78 75 70 67 73 62
181 142 95 12 352 290 222 214 145 117 80 200 136 255 323 296 145 176 156 156 150 148 150 145 139 141 129 121 116 103 97 101 93 90 86 73 65 68 75 72 66 61 65 60
103 118 163 182 189 139 189 200 191 141 126 168 222 207 208 224 185 154 139 146 155 162 161 159 155 149 141 135 128 118 109 99 100 97 89 84 76 72 73 74 68 65 62 66
140 189 137 21 104 135 170 188 184 196 221 182 239 205 212 202 198 185 159 161 166 178 177 171 157 155 143 134 127 119 108 100 106 101 92 88 84 79 76 72 71 69 60 57
82 221 101 25 350 80 145 201 196 211 217 245 142 273 200 204 113 164 185 177 190 194 179 167 163 157 154 150 144 124 113 106 114 98 96 95 88 80 73 70 66 64 57 49
132 129 101 228 319 77 306 213 193 215 205 218 219 238 168 181 188 196 199 196 202 189 177 176 175 170 161 156 147 134 128 119 105 102 101 98 96 84 73 75 71 64 56 43
130 107 92 163 52 170 253 351 203 203 193 222 255 166 191 204 217 218 206 194 201 188 184 177 168 160 151 135 125 124 121 113 110 101 96 89 88 84 75 72 60 50 28 29
91 126 112 145 194 286 269 195 153 167 243 218 229 234 184 196 147 252 217 212 210 192 178 163 152 142 135 132 127 121 113 114 112 110 107 102 95 90 76 61 44 29 17 327
59 54 118 148 156 215 223 232 324 111 262 245 225 231 191 130 198 239 5 112 157 139 142 141 137 130 125 127 129 126 129 124 123 127 117 102 85 85 86 46 353 303 315 313
124 71 201 169 236 284 243 223 154 141 251 189 123 136 144 180 209 87 72 49 59 95 118 121 126 131 133 132 128 124 127 125 118 102 100 95 86 95 81 61 23 352 343 348
151 147 176 177 194 259 179 58 163 192 140 160 115 83 114 117 111 92 88 95 104 110 108 115 116 116 113 123 128 129 127 128 118 121 117 110 109 99 59 45 2 359 23 9
198 176 171 183 210 230 203 107 100 126 135 166 124 119 139 144 174 160 139 121 115 121 117 116 125 118 89 99 129 136 140 134 127 112 99 99 66 43 33 37 15 27 25 25
262 164 163 80 197 207 169 121 143 121 126 174 181 175 172 176 164 154 140 141 135 137 135 135 133 139 141 132 114 121 138 132 134 130 113 78 74 33 4 4 23 37 342 338
189 136 160 277 281 0 285 213 170 179 162 179 220 204 198 159 176 160 155 154 152 147 141 152 152 149 138 126 117 117 130 147 133 117 105 100 105 75 20 319 243 338 271 231
185 167 165 212 201 148 198 201 172 171 188 195 182 187 147 163 162 152 169 170 162 162 157 150 140 141 148 146 142 130 114 122 122 118 121 117 102 67 81 81 346 360 4 346